Location: Melara
(45.0500°N, 11.1833°E)
Time: 02:38:11
(UTC+00:00)

Genesis I - Pass Details

Date: 26 May 2022
Orbit: 463 x 544 km, 64.5° (Epoch: 26 June)

Event Time Altitude Azimuth Distance (km) Brightness Sun altitude
Rises 02:55:04 0° 321° (NW) 2,713 6.9 -6.7°
Reaches altitude 10° 02:57:19 10° 318° (NW) 1,811 5.9 -6.4°
Maximum altitude 03:01:19 62° 238° (WSW) 608 3.3 -5.8°
Drops below altitude 10° 03:05:15 10° 158° (SSE) 1,765 5.8 -5.3°
Sets 03:07:24 0° 155° (SSE) 2,636 6.7 -5.0°
